OE3BCB-14 Weather Reports


time (UTC)temp
C
wind
direction
speed
KPH
gust
KPH
rain 1hr
cm
rain 24hr
cm
rain mn
cm
humidity
%
barometer
mb
20260905223309 21 225 0.0 70.8 0.00 0.00 0.00 51 1025.9
20260905222807 21 225 0.0 56.3 0.00 0.00 0.00 51 1025.8
20260905222306 21 180 16.1 37.0 0.00 0.00 0.00 51 1025.7
20260905221259 22 225 0.0 35.4 0.00 0.00 0.00 51 1025.5
20260905220757 22 225 4.8 38.6 0.00 0.00 0.00 51 1025.5
20260905220255 22 180 1.6 37.0 0.00 0.00 0.00 50 1025.5
20260905215752 22 225 1.6 62.8 0.00 0.00 0.00 50 1025.5
20260905215250 22 225 1.6 37.0 0.00 0.00 0.00 50 1025.4
20260905214245 22 135 62.8 64.4 0.00 0.00 0.00 50 1025.3
20260905213742 22 270 0.0 64.4 0.00 0.00 0.00 50 1025.3
20260905213240 21 180 3.2 53.1 0.00 0.00 0.00 50 1025.3
20260905212738 21 180 0.0 61.2 0.00 0.00 0.00 50 1025.3
20260905212235 22 180 0.0 64.4 0.00 0.00 0.00 50 1025.2
20260905211733 22 225 1.6 70.8 0.00 0.00 0.00 50 1025.1
20260905211230 22 225 3.2 40.2 0.00 0.00 0.00 50 1025.2
20260905210226 22 180 33.8 56.3 0.00 0.00 0.00 50 1025.0
20260905205723 21 180 3.2 61.2 0.00 0.00 0.00 50 1025.0
20260905205221 21 180 3.2 35.4 0.00 0.00 0.00 49 1025.0
20260905204718 21 180 1.6 35.4 0.00 0.00 0.00 49 1025.0
20260905204216 21 180 20.9 62.8 0.00 0.00 0.00 49 1025.0
20260905203714 21 180 1.6 35.4 0.00 0.00 0.00 49 1025.0
20260905203211 21 225 1.6 35.4 0.00 0.00 0.00 49 1025.0
20260905202206 21 225 0.0 33.8 0.00 0.00 0.00 49 1024.9
20260905201704 21 225 1.6 64.4 0.00 0.00 0.00 49 1024.9
20260905201201 21 180 0.0 33.8 0.00 0.00 0.00 48 1024.9
20260905200659 22 315 24.1 32.2 0.00 0.00 0.00 48 1024.8
20260905200157 22 270 0.0 33.8 0.00 0.00 0.00 48 1024.8
20260905195654 22 180 0.0 37.0 0.00 0.00 0.00 48 1024.7
20260905195152 22 225 4.8 62.8 0.00 0.00 0.00 48 1024.7
20260905194649 22 225 1.6 37.0 0.00 0.00 0.00 48 1024.6
20260905194147 22 225 30.6 37.0 0.00 0.00 0.00 47 1024.5
20260905193645 22 225 0.0 35.4 0.00 0.00 0.00 47 1024.4
20260905193142 23 225 9.7 37.0 0.00 0.00 0.00 47 1024.5
20260905192640 23 180 32.2 56.3 0.00 0.00 0.00 47 1024.5
20260905192137 23 180 1.6 66.0 0.00 0.00 0.00 47 1024.4
20260905191635 23 225 3.2 70.8 0.00 0.00 0.00 47 1024.4
20260905191133 23 180 27.4 35.4 0.00 0.00 0.00 47 1024.3
20260905190630 23 270 1.6 57.9 0.00 0.00 0.00 47 1024.3
20260905190128 23 180 3.2 38.6 0.00 0.00 0.00 46 1024.3
20260905185625 23 135 3.2 56.3 0.00 0.00 0.00 46 1024.3
20260905185123 23 225 33.8 33.8 0.00 0.00 0.00 46 1024.2
20260905184621 23 180 1.6 80.5 0.00 0.00 0.00 46 1024.1
20260905184118 23 180 1.6 37.0 0.00 0.00 0.00 46 1024.0
20260905183616 23 225 32.2 38.6 0.00 0.00 0.00 45 1024.0
20260905183113 23 270 3.2 48.3 0.00 0.00 0.00 45 1023.9
20260905182611 23 180 1.6 57.9 0.00 0.00 0.00 45 1023.8
20260905182108 23 225 3.2 46.7 0.00 0.00 0.00 45 1023.7
20260905181606 23 225 1.6 40.2 0.00 0.00 0.00 45 1023.7
20260905181104 23 180 32.2 33.8 0.00 0.00 0.00 44 1023.7
20260905180601 23 180 0.0 33.8 0.00 0.00 0.00 44 1023.6
20260905180059 23 180 0.0 32.2 0.00 0.00 0.00 44 1023.5
20260905175556 24 225 1.6 66.0 0.00 0.00 0.00 43 1023.4
20260905175054 24 225 1.6 37.0 0.00 0.00 0.00 43 1023.4
20260905174552 24 270 29.0 35.4 0.00 0.00 0.00 43 1023.3
20260905174049 24 225 4.8 69.2 0.00 0.00 0.00 42 1023.2
20260905173547 24 225 6.4 35.4 0.00 0.00 0.00 42 1023.1
20260905173044 25 225 3.2 35.4 0.00 0.00 0.00 42 1023.1
20260905172542 25 225 32.2 61.2 0.00 0.00 0.00 41 1023.0
20260905172040 25 270 46.7 61.2 0.00 0.00 0.00 41 1023.1
20260905171537 25 180 3.2 64.4 0.00 0.00 0.00 41 1022.9
20260905171035 25 180 6.4 35.4 0.00 0.00 0.00 40 1022.9
20260905170532 25 225 6.4 74.0 0.00 0.00 0.00 40 1022.9
20260905170030 26 225 4.8 38.6 0.00 0.00 0.00 39 1022.9
20260905165527 27 270 4.8 35.4 0.00 0.00 0.00 38 1022.9
20260905165025 27 225 6.4 40.2 0.00 0.00 0.00 39 1022.9
20260905164523 27 180 4.8 59.5 0.00 0.00 0.00 38 1022.7
20260905164020 27 225 9.7 41.8 0.00 0.00 0.00 38 1022.7
20260905163518 28 180 3.2 56.3 0.00 0.00 0.00 38 1022.7
20260905163015 28 270 3.2 61.2 0.00 0.00 0.00 38 1022.6
20260905162513 28 180 9.7 62.8 0.00 0.00 0.00 37 1022.5
20260905162011 28 180 8.0 38.6 0.00 0.00 0.00 37 1022.5
20260905161508 28 180 3.2 56.3 0.00 0.00 0.00 38 1022.5
20260905161006 29 180 32.2 64.4 0.00 0.00 0.00 37 1022.5
20260905160503 29 180 33.8 51.5 0.00 0.00 0.00 37 1022.4
20260905160001 29 270 32.2 62.8 0.00 0.00 0.00 38 1022.5
20260905155458 29 135 6.4 40.2 0.00 0.00 0.00 38 1022.4
20260905154956 29 180 9.7 56.3 0.00 0.00 0.00 38 1022.5
20260905154454 30 225 53.1 57.9 0.00 0.00 0.00 38 1022.5
20260905153951 30 225 32.2 53.1 0.00 0.00 0.00 39 1022.5
20260905153449 31 225 29.0 101.4 0.00 0.00 0.00 40 1022.5
20260905152946 30 270 4.8 69.2 0.00 0.00 0.00 39 1022.4
20260905152444 30 135 11.3 35.4 0.00 0.00 0.00 39 1022.3
20260905151942 30 180 59.5 107.8 0.00 0.00 0.00 39 1022.3
20260905151439 30 225 8.0 61.2 0.00 0.00 0.00 40 1022.4
20260905150937 31 45 1.6 74.0 0.00 0.00 0.00 42 1022.3
20260905150434 30 225 32.2 59.5 0.00 0.00 0.00 41 1022.4
20260905145932 30 180 9.7 56.3 0.00 0.00 0.00 40 1022.4
20260905145429 30 180 8.0 51.5 0.00 0.00 0.00 41 1022.4
20260905144927 30 180 17.7 77.2 0.00 0.00 0.00 41 1022.2
20260905144425 30 225 1.6 59.5 0.00 0.00 0.00 43 1022.4
20260905143922 30 225 9.7 37.0 0.00 0.00 0.00 43 1022.5
20260905143420 30 225 14.5 59.5 0.00 0.00 0.00 43 1022.4
20260905142917 30 225 32.2 61.2 0.00 0.00 0.00 44 1022.4
20260905142415 31 225 3.2 61.2 0.00 0.00 0.00 46 1022.4
20260905141913 31 270 25.7 48.3 0.00 0.00 0.00 46 1022.5
20260905141410 31 270 4.8 59.5 0.00 0.00 0.00 45 1022.4
20260905140908 30 270 3.2 72.4 0.00 0.00 0.00 47 1022.5
20260905135903 30 315 4.8 62.8 0.00 0.00 0.00 48 1022.5
20260905135401 30 270 8.0 88.5 0.00 0.00 0.00 48 1022.4
20260905134858 29 225 25.7 67.6 0.00 0.00 0.00 48 1022.4
20260905134356 30 225 30.6 66.0 0.00 0.00 0.00 48 1022.5
20260905133456 0 180 6.4 49.9 0.00 0.00 0.00 100 30.0
20260905132956 0 225 4.8 51.5 0.00 0.00 0.00 100 30.0
20260905132456 0 270 1.6 310.6 0.00 0.00 0.00 100 30.0
20260905131359 0 180 6.4 630.9 0.00 0.00 0.00 100 30.0
20260905130512 29 180 4.8 45.1 0.00 0.00 0.00 54 1022.9
20260905130009 28 225 24.1 88.5 0.00 0.00 0.00 53 1022.9
20260905125507 28 180 4.8 49.9 0.00 0.00 0.00 55 1022.9
20260905125005 29 180 12.9 62.8 0.00 0.00 0.00 54 1022.9
20260905124502 30 0 8.0 53.1 0.00 0.00 0.00 56 1023.1
20260905124000 29 225 9.7 69.2 0.00 0.00 0.00 56 1022.9
20260905123457 29 180 33.8 53.1 0.00 0.00 0.00 56 1022.9
20260905122955 28 180 4.8 59.5 0.00 0.00 0.00 56 1023.1
20260905122453 28 180 30.6 62.8 0.00 0.00 0.00 56 1023.0
20260905121950 28 180 8.0 57.9 0.00 0.00 0.00 56 1022.8
20260905120945 28 270 3.2 67.6 0.00 0.00 0.00 57 1022.9
20260905120443 28 270 1.6 67.6 0.00 0.00 0.00 58 1023.0
20260905115940 27 180 33.8 83.7 0.00 0.00 0.00 57 1022.9
20260905115438 27 45 6.4 67.6 0.00 0.00 0.00 57 1022.8
20260905114936 28 180 4.8 40.2 0.00 0.00 0.00 60 1023.0
20260905114433 28 180 11.3 70.8 0.00 0.00 0.00 58 1023.1
20260905113931 27 180 4.8 75.6 0.00 0.00 0.00 59 1023.2
20260905113428 27 225 6.4 67.6 0.00 0.00 0.00 60 1023.1
20260905112926 27 180 11.3 72.4 0.00 0.00 0.00 61 1023.0
20260905112424 26 225 6.4 98.2 0.00 0.00 0.00 60 1023.1
20260905111921 26 180 41.8 72.4 0.00 0.00 0.00 61 1023.0
20260905111419 27 225 40.2 77.2 0.00 0.00 0.00 62 1023.1
20260905110916 26 225 9.7 103.0 0.00 0.00 0.00 62 1023.1
20260905110414 26 225 27.4 41.8 0.00 0.00 0.00 64 1023.1
20260905105912 27 180 4.8 48.3 0.00 0.00 0.00 64 1023.0
20260905105409 26 180 14.5 70.8 0.00 0.00 0.00 64 1022.9
20260905103359 24 225 22.5 78.9 0.00 0.00 0.00 67 1023.1
20260905102857 24 225 11.3 74.0 0.00 0.00 0.00 68 1023.2
20260905102355 25 180 41.8 67.6 0.00 0.00 0.00 69 1023.1
20260905101852 23 225 4.8 67.6 0.00 0.00 0.00 71 1023.3
20260905101350 23 225 4.8 54.7 0.00 0.00 0.00 70 1023.3
20260905100847 23 180 12.9 95.0 0.00 0.00 0.00 70 1023.2
20260905100345 23 225 8.0 38.6 0.00 0.00 0.00 70 1023.3
20260905095843 22 225 4.8 64.4 0.00 0.00 0.00 70 1023.3
20260905095340 22 180 8.0 72.4 0.00 0.00 0.00 70 1023.2
20260905094838 22 225 6.4 62.8 0.00 0.00 0.00 70 1023.4
20260905094335 22 225 27.4 46.7 0.00 0.00 0.00 69 1023.2
20260905093833 22 180 3.2 83.7 0.00 0.00 0.00 70 1023.1
20260905093331 22 225 3.2 37.0 0.00 0.00 0.00 69 1023.0
20260905092828 21 225 3.2 66.0 0.00 0.00 0.00 69 1023.1
20260905092326 21 180 45.1 46.7 0.00 0.00 0.00 69 1023.1
20260905091823 21 180 57.9 67.6 0.00 0.00 0.00 68 1023.1
20260905090819 21 225 61.2 61.2 0.00 0.00 0.00 68 1023.1
20260905090316 21 315 0.0 59.5 0.00 0.00 0.00 69 1022.9
20260905085814 20 180 1.6 41.8 0.00 0.00 0.00 68 1023.0
20260905085311 20 225 4.8 38.6 0.00 0.00 0.00 67 1023.1
20260905084809 20 225 3.2 41.8 0.00 0.00 0.00 67 1023.0
20260905083302 20 180 1.6 33.8 0.00 0.00 0.00 66 1023.1
20260905081754 18 180 0.0 37.0 0.00 0.00 0.00 64 1023.3
20260905081252 18 180 0.0 41.8 0.00 0.00 0.00 63 1023.4
20260905080750 18 180 1.6 43.5 0.00 0.00 0.00 62 1023.5
20260905080247 18 225 35.4 54.7 0.00 0.00 0.00 61 1023.6
20260905075745 18 180 0.0 38.6 0.00 0.00 0.00 61 1023.6
20260905075242 20 180 1.6 56.3 0.00 0.00 0.00 60 1023.6
20260905074740 21 225 1.6 69.2 0.00 0.00 0.00 61 1023.6
20260905074237 21 180 1.6 45.1 0.00 0.00 0.00 61 1023.6
20260905073735 20 180 4.8 35.4 0.00 0.00 0.00 61 1023.7
20260905073233 20 180 0.0 19.3 0.00 0.00 0.00 61 1023.7
20260905072730 20 180 1.6 37.0 0.00 0.00 0.00 60 1023.7
20260905072228 20 225 0.0 38.6 0.00 0.00 0.00 60 1023.5
20260905071725 20 180 1.6 62.8 0.00 0.00 0.00 60 1023.4
20260905071223 20 225 1.6 69.2 0.00 0.00 0.00 60 1023.8
20260905070721 20 180 3.2 43.5 0.00 0.00 0.00 60 1023.8
20260905070218 20 180 37.0 49.9 0.00 0.00 0.00 59 1023.7
20260905065716 20 180 4.8 35.4 0.00 0.00 0.00 59 1023.5
20260905065213 19 225 0.0 61.2 0.00 0.00 0.00 59 1023.1
20260905064711 19 180 29.0 29.0 0.00 0.00 0.00 59 1022.9
20260905064208 19 180 0.0 37.0 0.00 0.00 0.00 59 1023.0
20260905063706 19 225 0.0 1.6 0.00 0.00 0.00 58 1023.0
20260905063204 20 315 0.0 35.4 0.00 0.00 0.00 58 1023.0
20260905062701 20 225 0.0 38.6 0.00 0.00 0.00 57 1023.5
20260905062159 20 180 3.2 37.0 0.00 0.00 0.00 57 1023.5
20260905061656 20 180 0.0 54.7 0.00 0.00 0.00 57 1023.2
20260905061154 20 225 0.0 40.2 0.00 0.00 0.00 57 1022.8
20260905060652 20 1.6 46.7 0.00 0.00 0.00 56 1022.4
20260905060149 21 0 1.6 37.0 0.00 0.00 0.00 56 1022.5
20260905055144 21 0 0.0 46.7 0.00 0.00 0.00 56 1022.5
20260905054642 21 0 0.0 69.2 0.00 0.00 0.00 55 1022.5
20260905054140 22 315 4.8 77.2 0.00 0.00 0.00 55 1022.1
20260905053637 22 315 1.6 77.2 0.00 0.00 0.00 55 1022.3
20260905053135 22 45 0.0 35.4 0.00 0.00 0.00 55 1021.7
20260905052632 22 0 0.0 38.6 0.00 0.00 0.00 55 1021.7
20260905052130 22 0.0 38.6 0.00 0.00 0.00 54 1021.4
20260905051627 22 45 1.6 40.2 0.00 0.00 0.00 54 1021.4
20260905051125 22 45 3.2 74.0 0.00 0.00 0.00 54 1020.8
20260905050623 22 45 1.6 40.2 0.00 0.00 0.00 53 1020.6
20260905050120 22 45 4.8 38.6 0.00 0.00 0.00 53 1020.4
20260905045618 22 45 1.6 74.0 0.00 0.00 0.00 53 1020.3
20260905045115 22 315 3.2 37.0 0.00 0.00 0.00 52 1020.1
20260905044613 22 0 0.0 43.5 0.00 0.00 0.00 52 1020.2
20260905044111 22 0 3.2 38.6 0.00 0.00 0.00 51 1020.0
20260905043608 22 180 1.6 37.0 0.00 0.00 0.00 50 1019.7
20260905043106 21 1.6 37.0 0.00 0.00 0.00 49 1019.7
20260905042603 21 315 0.0 38.6 0.00 0.00 0.00 48 1019.9
20260905042101 22 22.5 38.6 0.00 0.00 0.00 47 1019.8
20260905041559 22 270 1.6 49.9 0.00 0.00 0.00 46 1019.9
20260905041056 23 45 1.6 46.7 0.00 0.00 0.00 44 1019.7
20260905040554 23 45 1.6 33.8 0.00 0.00 0.00 44 1019.8
20260905040051 23 45 1.6 69.2 0.00 0.00 0.00 44 1019.5
20260905035549 23 45 1.6 41.8 0.00 0.00 0.00 44 1019.6
20260905035046 23 0 1.6 40.2 0.00 0.00 0.00 44 1019.4
20260905034544 23 45 0.0 59.5 0.00 0.00 0.00 44 1019.4
20260905033539 24 45 16.1 66.0 0.00 0.00 0.00 43 1019.1
20260905033037 24 0 3.2 43.5 0.00 0.00 0.00 43 1019.3
20260905032534 25 45 25.7 64.4 0.00 0.00 0.00 43 1019.0
20260905032032 26 315 8.0 38.6 0.00 0.00 0.00 43 1018.9
20260905031530 26 45 1.6 41.8 0.00 0.00 0.00 43 1018.2
20260905031027 26 45 1.6 56.3 0.00 0.00 0.00 43 1017.9
20260905030525 26 315 0.0 67.6 0.00 0.00 0.00 42 1017.3
20260905030022 26 180 0.0 64.4 0.00 0.00 0.00 42 1017.2
20260905025520 26 225 3.2 70.8 0.00 0.00 0.00 42 1017.2
20260905025017 26 225 3.2 62.8 0.00 0.00 0.00 41 1017.0
20260905024515 26 180 4.8 67.6 0.00 0.00 0.00 40 1016.9
20260905023510 26 225 4.8 72.4 0.00 0.00 0.00 39 1017.0
20260905023008 27 180 1.6 77.2 0.00 0.00 0.00 39 1016.8
20260905022505 26 180 1.6 69.2 0.00 0.00 0.00 39 1016.7
20260905022003 27 180 3.2 37.0 0.00 0.00 0.00 38 1016.5
20260905021501 27 225 33.8 46.7 0.00 0.00 0.00 38 1016.3
20260905020958 27 225 3.2 51.5 0.00 0.00 0.00 38 1016.5
20260905020456 27 180 3.2 35.4 0.00 0.00 0.00 38 1016.4
20260905015953 27 225 3.2 38.6 0.00 0.00 0.00 38 1016.3
20260905015451 27 225 1.6 35.4 0.00 0.00 0.00 38 1016.4
20260905014949 27 180 3.2 61.2 0.00 0.00 0.00 38 1016.3
20260905014446 27 225 1.6 43.5 0.00 0.00 0.00 38 1016.2
20260905013944 27 180 0.0 66.0 0.00 0.00 0.00 38 1016.1
20260905013441 27 90 1.6 48.3 0.00 0.00 0.00 38 1016.1
20260905012939 27 180 3.2 54.7 0.00 0.00 0.00 39 1016.1
20260905012436 27 225 3.2 41.8 0.00 0.00 0.00 39 1016.0
20260905011934 27 180 4.8 49.9 0.00 0.00 0.00 39 1016.0
20260905011432 27 225 30.6 35.4 0.00 0.00 0.00 39 1016.0
20260905010929 27 225 37.0 82.1 0.00 0.00 0.00 40 1016.1
20260905010427 27 180 3.2 64.4 0.00 0.00 0.00 40 1016.0
20260905005924 27 180 3.2 51.5 0.00 0.00 0.00 40 1015.9
20260905005422 27 180 8.0 103.0 0.00 0.00 0.00 41 1015.8
20260905004920 27 180 3.2 37.0 0.00 0.00 0.00 41 1015.8
20260905004417 26 225 3.2 37.0 0.00 0.00 0.00 41 1015.8
20260905003915 26 225 33.8 37.0 0.00 0.00 0.00 41 1015.8
20260905003412 26 225 4.8 45.1 0.00 0.00 0.00 41 1015.9
20260905002910 26 225 0.0 32.2 0.00 0.00 0.00 42 1015.8
20260905002408 26 180 3.2 35.4 0.00 0.00 0.00 42 1015.8
20260905001905 26 225 4.8 53.1 0.00 0.00 0.00 42 1015.8
20260905001403 26 180 32.2 35.4 0.00 0.00 0.00 42 1015.7
20260905000900 26 180 0.0 38.6 0.00 0.00 0.00 42 1015.7
20260905000358 26 225 1.6 37.0 0.00 0.00 0.00 43 1015.6
20260904235855 26 180 0.0 35.4 0.00 0.00 0.00 43 1015.6
20260904235353 26 180 0.0 59.5 0.00 0.00 0.00 43 1015.5
20260904234851 26 180 0.0 56.3 0.00 0.00 0.00 44 1015.6
20260904234349 25 225 3.2 35.4 0.00 0.00 0.00 44 1015.5
20260904233846 25 180 1.6 25.7 0.00 0.00 0.00 44 1015.5
20260904232841 25 180 1.6 38.6 0.00 0.00 0.00 45 1015.5
20260904232339 25 225 4.8 35.4 0.00 0.00 0.00 46 1015.5
20260904231836 23 180 1.6 38.6 0.00 0.00 0.00 47 1015.4
20260904231334 22 180 0.0 35.4 0.00 0.00 0.00 47 1015.4
20260904230831 21 135 0.0 33.8 0.00 0.00 0.00 47 1015.4
20260904230329 21 135 0.0 17.7 0.00 0.00 0.00 46 1015.3
20260904225827 21 180 0.0 0.0 0.00 0.00 0.00 46 1015.2
20260904225324 21 225 0.0 35.4 0.00 0.00 0.00 46 1015.3
20260904224822 21 225 0.0 0.0 0.00 0.00 0.00 45 1015.2
20260904224319 21 180 0.0 0.0 0.00 0.00 0.00 45 1015.1
20260904223817 21 180 0.0 0.0 0.00 0.00 0.00 45 1015.0